Regional Weather Roundup
Issued by NWS

Home | Current Version | Previous Version | Text Only | Print | Product List | Glossary Off
Versions: 1 2 3 4 5 6 7 8 9 10 11 12 13 14 15 16 17 18 19 20 21 22 23 24 25 26 27 28 29 30 31 32 33 34 35 36 37 38 39 40 41 42 43 44 45 46 47 48 49 50

000
ASUS43 KLMK 180510
RWRKY
KENTUCKY REGIONAL WEATHER ROUNDUP
NATIONAL WEATHER SERVICE LOUISVILLE KY
100 AM EDT SAT APR 18 2015

NOTE "FAIR" INDICATES FEW OR NO CLOUDS BELOW 12,000 FEET
WITH NO SIGNIFICANT WEATHER AND/OR OBSTRUCTIONS TO VISIBILITY.

KYZ001>023-026-027-061>063-070>075-180600-
WESTERN AND SOUTH CENTRAL KENTUCKY

CITY           SKY/WX    TMP DP  RH WIND       PRES   REMARKS
PADUCAH        MOCLDY    61  59  93 CALM      30.03S
HENDERSON      CLEAR     57  54  88 CALM      30.04R
OWENSBORO      CLEAR     62  61  97 CALM      30.04R
HOPKINSVILLE   CLEAR     61  59  93 CALM      30.04R
BOWLING GREEN  CLEAR     60  57  89 CALM      30.04R
GLASGOW        CLEAR     56  56 100 CALM      30.04R FOG
$$

KYZ024-025-028>034-038-045-046-053-180600-
NORTH CENTRAL KENTUCKY

CITY           SKY/WX    TMP DP  RH WIND       PRES   REMARKS
LOUISVILLE/SDF PTCLDY    63  58  83 CALM      30.02R
LOUISVILLE/LOU CLEAR     62  58  86 CALM      30.03R
FORT KNOX      CLEAR     57  55  92 SW2       30.02R
$$

KYZ035>037-039>044-047>052-055>060-089>105-180600-
NORTHEAST KENTUCKY

CITY           SKY/WX    TMP DP  RH WIND       PRES   REMARKS
LEXINGTON      MOCLDY    60  56  86 E3        30.02F
COVINGTON      PTCLDY    61  48  62 CALM      30.03F
FRANKFORT      PTCLDY    56  54  93 CALM      30.01F
$$

KYZ054-064>069-076>088-106>120-180600-
SOUTHEAST KENTUCKY

CITY           SKY/WX    TMP DP  RH WIND       PRES   REMARKS
JACKSON        PTCLDY    63  55  75 NE3       30.04F
LONDON         PTCLDY    59  54  83 CALM      30.03F
SOMERSET       MOCLDY    55  55 100 CALM      30.03F
MIDDLESBORO    PTCLDY    58  57  99 CALM      30.03F
MONTICELLO     PTCLDY    56  56 100 NW3       30.06F
$$




USA.gov is the U.S. government's official web portal to all federal, state and local government web resources and services.